Location: Hurstbourne Priors
(51.2000°N, 1.3667°W)
Time: 08:29:22
(UTC+00:00)

Transit 2A Rocket - Visible Passes

Search period start: 19 April 2021 00:00
Search period end: 29 April 2021 00:00
Orbit: 594 x 908 km, 66.7° (Epoch: 18 April)

Date Brightness Start Highest point End Pass type
(mag) Time Alt. Az. Time Alt. Az. Time Alt. Az.
19 Apr 5.7 00:15:20 10° NW 00:18:04 36° WNW 00:18:04 36° WNW visible
19 Apr 7.3 20:08:37 10° N 20:09:42 11° N 20:10:47 10° NNE visible
19 Apr 6.7 21:50:40 10° NNW 21:53:57 20° NNE 21:56:30 13° ENE visible
19 Apr 5.0 23:32:41 10° NW 23:36:24 61° NNW 23:36:24 61° NNW visible
20 Apr 7.2 01:16:16 10° WNW 01:16:16 10° WNW 01:16:16 10° WNW visible
20 Apr 7.0 21:08:15 10° NNW 21:10:57 16° NNE 21:13:41 10° ENE visible
20 Apr 5.1 22:50:08 10° NNW 22:54:27 51° NE 22:54:44 50° ENE visible
21 Apr 6.6 00:32:58 10° WNW 00:34:37 19° WNW 00:34:37 19° WNW visible
21 Apr 7.1 20:25:48 10° NNW 20:27:51 13° NNE 20:29:56 10° NE visible
21 Apr 5.8 22:07:39 10° NNW 22:11:41 34° NE 22:13:07 27° ENE visible
21 Apr 5.7 23:50:03 10° NW 23:53:00 35° WNW 23:53:00 35° WNW visible
22 Apr 7.2 19:43:18 10° N 19:44:43 11° N 19:46:08 10° NNE visible
22 Apr 6.3 21:25:11 10° NNW 21:28:49 24° NE 21:31:30 15° E visible
22 Apr 4.7 23:07:20 10° NW 23:11:23 70° WNW 23:11:23 70° WNW visible
23 Apr 6.7 20:42:45 10° NNW 20:45:52 18° NNE 20:49:03 10° ENE visible
23 Apr 4.7 22:24:43 10° NW 22:29:10 68° NE 22:29:49 59° E visible
24 Apr 6.7 00:07:58 10° WNW 00:09:42 17° W 00:09:42 17° W visible
24 Apr 7.0 20:00:20 10° NNW 20:02:49 15° NNE 20:05:22 10° NE visible
24 Apr 5.4 21:42:12 10° NNW 21:46:27 44° NE 21:48:16 29° E visible
24 Apr 5.8 23:24:51 10° NW 23:28:09 31° W 23:28:09 31° W visible
25 Apr 6.0 20:59:43 10° NNW 21:03:39 30° NE 21:06:44 15° E visible
25 Apr 4.9 22:42:01 10° NW 22:46:25 55° WSW 22:46:37 54° SW visible
26 Apr 6.4 20:17:16 10° NNW 20:20:45 22° NNE 20:24:21 10° E visible
26 Apr 4.6 21:59:21 10° NW 22:03:50 89° SW 22:05:07 48° SE visible
26 Apr 6.9 23:43:14 10° WNW 23:45:01 14° W 23:45:01 14° W visible
27 Apr 4.9 21:16:46 10° NNW 21:21:11 58° NE 21:23:38 26° ESE visible
27 Apr 6.2 22:59:45 10° WNW 23:03:26 24° WSW 23:03:32 24° WSW visible
28 Apr 5.6 20:34:16 10° NNW 20:38:26 38° NE 20:42:12 13° ESE visible
28 Apr 5.5 22:16:46 10° NW 22:21:00 40° WSW 22:22:06 34° SSW visible
